Погода Турчасово

Поиск расширенной информации на нашем сайте:

Полезная информация:

Новости сайта



02.01.2020
Опубликован Долгосрочный прогноз погоды по городам России и ближнего зарубежья на январь 2020 года.
Карты: Прогноз на январь и февраль 2020 года, Сравнение прогнозируемой аномалии приземной температуры воздуха на январь 2020 года по разным моделям.




Погода Турчасово - сегодня

Время (UTC), дата Ветер
(°,м/с) 
Видим.   Явления Облачность Т
(°С)
Тd
(°С)
f(%) Тe
(°С)
Pmin
(гПа)
dP
(гПа)
Po
(мм)
O2
(г/м3)
Тmin Tmax R s Состояние
почвы
15 29.11.20 150 (ЮВ) 20000 м    10/10 720 м 
[Sc]
-7.6 -8.9 90 -10  1038.1  -0.3  775  322    -7.6       
18 29.11.20 150 (ЮВ) 20000 м    10/10 750 м 
[Sc]
-6.7 -7.9 91 -9  1037.4  -0.7  774  321           
21 29.11.20 160 (Ю) 20000 м    10/10 540 м 
[Sc]
-5.9 -7.3 90 -8  1036.4  -1  774  319           
00 30.11.20 150 (ЮВ) 20000 м    10/10 300 м 
[St]
-5.3 -6.1 94 -9  1034.9  -1.4  773  318           
03 30.11.20 160 (Ю) 20000 м  позёмок  10/10 240 м 
[St]
-4.7 -5.2 96 -9  1033.7  -1.3  772  317  -7.6      равномерный
сухой снег
100% 
06 30.11.20 150 (ЮВ) 20000 м  в посл. час снег  10/10 270 м 
[St]
-3.9 -5 92 -7  1032.8  -0.9  771  316           
09 30.11.20 160 (Ю) 20000 м  {снег}  10/10 300 м 
[St]
-2.6 -3.9 91 -5  1031.8  -0.9  770  314           
12 30.11.20 150 (ЮВ) 20000 м  {снег}  10/10 240 м 
[St]
-1.4 -2 96 -3  1030  -1.8  769  312           
15 30.11.20 130 (ЮВ) 10 км  слаб. снег  10/10 300 м 
[Frnb|Ns]
-0.8 -1.6 94 -3  1027.9  -2  767  310    -0.8  0.2     
18 30.11.20 160 (Ю) 20000 м  {снег}  10/10 270 м 
[St]
-0.1 -0.8 95 -2  1026  -1.9  766  309           
21 30.11.20 160 (Ю) 20000 м    10/10 400 м 
[Sc]
+0.3 -0.5 94 -2  1024.5  -1.5  765  308           
00 01.12.20 160 (Ю) 10 км  слаб. снег  9/8 360 м средняя 
[Frnb|As trans]
+0.2 -0.4 96 -2  1023.4  -1.1  764  308           
03 01.12.20 180 (Ю) 10 км  слаб. снег  9/9 480 м средняя 
[Frnb|As trans]
+0.2 -0.8 93 -3  1023.1  -0.4  764  308  -0.8    0.5  равномерный
мокрый или
старый снег
100% 
06 01.12.20 170 (Ю) 20000 м  {снег}  10/10 450 м 
[Sc]
+0.4 -0.9 91 -2  1023.2  0.2  764  307           
09 01.12.20 180 (Ю) 20000 м    10/10 1110 м 
[Sc]
-0.1 -2 87 -3  1023.2  764  308           
12 01.12.20 180 (Ю) 20000 м  {ливн. осадки}  9/8 500 м кучево-дожд., средняя, верхняя 
[Cb cap|Ac trans|Ci fib]
-0.7 -2.6 87 -3  1023.1  -0.1  764  309           
15 01.12.20 180 (Ю) 10 км  слаб. ливневой снег  10/10 400 м кучево-дожд. 
[Cb cap]
-0.7 -2.1 90 -3  1023.7  0.6  764  309    +0.5  0.4     
18 01.12.20 190 (Ю) 20000 м  {ливн. осадки}  10/10 660 м кучево-дожд. 
[Cb cap]
+0 -2.1 86 -2  1023.9  0.2  764  308           
21 01.12.20 180 (Ю) 10 км  слаб. ливневой снег  10/10 570 м кучево-дожд. 
[Cb cap]
-0.2 -1.3 92 -3  1023.4  -0.6  764  308           
00 02.12.20 200 (Ю) 20000 м  {ливн. осадки}  10/10 500 м кучево-дожд. 
[Cb cap]
+0.7 -0.9 89 -2  1023.5  0.2  764  307           
03 02.12.20 220 (ЮЗ) 20000 м    10/10 1440 м кучево-дожд. 
[Cb cap]
+1.1 -0.4 90 -1  1024.9  1.4  765  307  -0.7    0.2  равномерный
мокрый или
старый снег
100% 
06 02.12.20 230 (ЮЗ) 20000 м    9/9 1260 м кучево-дожд. 
[Cb cap]
+0.9 -0.4 91 -1  1026.7  1.8  767  308           
09 02.12.20 210 (ЮЗ) 20000 м    9/9 1050 м кучево-дожд. 
[Cb cap]
+0.7 -0.6 91 1028.7  768  309           
12 02.12.20 180 (Ю) 10 км  слаб. ливневой снег  10/10 270 м кучево-дожд. 
[Cb cap]
+0.2 -0.4 96 +1  1029.5  0.8  769  310           
15 02.12.20 190 (Ю) 10 км  слаб. ливневой снег  10/10 960 м кучево-дожд. 
[Cb cap]
+0.2 -0.3 96 -1  1029.6  0.1  769  310    +1.1  0.2     
Время (UTC), дата Ветер
(°,м/с) 
Видим.   Явления Облачность Т
(°С)
Тd
(°С)
f(%) Тe
(°С)
Pmin
(гПа)
dP
(гПа)
Po
(мм)
O2
(г/м3)
Тmin Tmax R s Состояние
почвы

Для получения пояснительной информации подведите курсор к названию столбца.

ПОГОДА Турчасово - архив

Всё, что Вы хотите узнать о погоде Турчасово - удобно и подробно!

Выберите нужную дату (начиная с 1 января 2019* года) и нажмите кнопку "Найти".
Будут отображены архивные сводки погоды по пункту Турчасово, начиная с указанной даты.


Отображать данные в формате CSV (для использования в таблицах Excel)


Внимание! Наш архив погоды предназначен исключительно для личного некоммерческого использования в познавательных целях. Если Вам необходимы официальные справки о состоянии погоды (для производственных, юридических, коммерческих и т.п. целей), обращайтесь в органы Росгидромета.

*Примечание: данная дата относится к архиву по метеостанциям СССР (Россия, СНГ, Балтия).
Архив по метеостанциям Зарубежной Европы и Азии (кроме Китая) хранится 10 дней, по другим регионам земного шара (Китай, Африка, Америка, Австралия, Океания) - 1 день.

Турчасово - район местоположения метеостанции


Название, широта, долгота, высота метеостанции:
Турчасово 63.1°ш. 39.2°д. 34 м над ур. моря [Российская Федерация]

Дополнительная информация

В oтличие oт бoльшинства пoгoдных сайтoв мы публикуем пoдрoбную метеoинфoрмацию в детальнoм прoфессиoнальнoм фoрмате.

Характеристики температуры и влажнoсти вoздуха измеряются на высoте 2 м в тени вдали oт зданий и деревьев.
Скoрoсть ветра измеряется на высoте 10 м (на урoвне рoста челoвека скoрoсть ветра ниже в 1.5-2 раза). Если метеoстанция нахoдится в гoрoде или в лесу, тo скoрoсть ветра занижена на 2-4 м/с пo сравнению с oткрытым местoм. Скoрoсть ветра над акватoриями крупных рек и oзёр, а также на вершинах хoлмoв на 2-5 м/с выше, чем в oбычных услoвиях.
Атмoсфернoе давление в разных тoчках местнoсти мoжет значительнo oтличаться oт давления на метеoстанции, в зависимoсти oт услoвий рельефа (при пoдъёме на 10 м давление пoнижается примернo на 1 мм рт.ст.).